Flag Weather past 2 weeks in Differdange, Luxembourg

Now
36 °F

Chilly.


Feels Like: 29 °F
Forecast: 35 / 43 °F
Wind: 8 mph from East

Location: Luxembourg Airport

Current Time: Nov 29, 2014 at 3:44:58 AM

Latest Report: Nov 29, 2014 at 2:50 AM


Visibility: N/A

Pressure: 29.86 "Hg

Humidity: 93%

Dew point: 34 °F

Location of DifferdangeLocation

Historic Weather in Differdange — Graph

°F

Differdange temperature yesterday

Maximum temperature yesterday: 48 °F (at 1:50 PM)
Minimum temperature yesterday: 34 °F (at 10:20 PM)
Average temperature yesterday: 41 °F

Past Weeks' High & Low Weather Summary

 TemperatureHumidityPressure
High54 °F (Nov 22, 2:50 PM)100% (Nov 14, 2:20 AM)30.27 "Hg (Nov 14, 2:20 AM)
Low34 °F (Nov 28, 10:20 PM)76% (Nov 19, 2:20 PM)29.53 "Hg (Nov 16, 12:50 PM)
Average44 °F93%29.91 "Hg
* Reported Nov 14 2:20 AM — Nov 29 2:20 AM, Differdange, Weather by CustomWeather, © 2014

Note: Actual official high and low records may vary slightly from our data, if they occured in-between our weather recording intervals... More about our weather records

Advertising

Differdange weather history for previous 24 hours

 ConditionsComfort  
Time TempWeatherWind HumidityBarometerVisibility
2:20 AM
Nov 29
36 °FChilly.7 mph93%29.86 "Hg2 mi
1:50 AM36 °FChilly.6 mph93%29.86 "Hg2 mi
1:20 AM36 °FFog.13 mph93%29.83 "Hg2 mi
12:50 AM36 °FFog.10 mph93%29.83 "Hg2 mi
12:20 AM36 °FFog.9 mph93%29.83 "Hg2 mi
11:50 PM
Nov 28
36 °FPassing clouds.6 mph93%29.83 "Hg2 mi
11:20 PM36 °FPassing clouds.8 mph93%29.83 "Hg2 mi
10:50 PM36 °FPassing clouds.10 mph93%29.80 "Hg2 mi
10:20 PM34 °FPassing clouds.9 mph100%29.80 "Hg2 mi
9:50 PM36 °FPassing clouds.9 mph93%29.80 "Hg2 mi
9:20 PM36 °FPassing clouds.7 mph93%29.83 "Hg2 mi
8:50 PM36 °FPassing clouds.10 mph100%29.80 "Hg3 mi
8:20 PM36 °FClear.15 mph100%29.80 "Hg3 mi
7:50 PM36 °FClear.10 mph100%29.80 "Hg3 mi
7:20 PM37 °FClear.10 mph93%29.77 "Hg3 mi
6:50 PM37 °FClear.9 mph93%29.77 "Hg3 mi
6:20 PM39 °FClear.8 mph87%29.77 "Hg3 mi
5:50 PM39 °FClear.7 mph93%29.77 "Hg4 mi
5:20 PM41 °FClear.9 mph87%29.74 "Hg4 mi
4:50 PM41 °FClear.9 mph93%29.74 "Hg5 mi
4:20 PM43 °FClear.7 mph87%29.74 "Hg5 mi
3:50 PM45 °FClear.13 mph81%29.74 "Hg5 mi
3:20 PM46 °FClear.12 mph82%29.71 "Hg5 mi
2:50 PM46 °FClear.10 mph82%29.71 "Hg5 mi
2:20 PM48 °FClear.9 mph76%29.71 "Hg5 mi
1:50 PM48 °FClear.10 mph76%29.71 "Hg5 mi
1:20 PM46 °FClear.8 mph87%29.74 "Hg5 mi
12:50 PM46 °FClear.7 mph87%29.74 "Hg5 mi
12:20 PM45 °FClear.6 mph87%29.74 "Hg4 mi
11:50 AM45 °FScattered clouds.9 mph87%29.74 "Hg4 mi
11:20 AM43 °FClear.9 mph93%29.74 "Hg3 mi
10:50 AM43 °FClear.7 mph93%29.74 "Hg3 mi
10:20 AM43 °FClear.8 mph93%29.74 "Hg2 mi
9:50 AM41 °FClear.10 mph100%29.74 "Hg2 mi
9:20 AM41 °FClear.9 mph100%29.71 "Hg2 mi
8:50 AM41 °FPartly sunny.8 mph100%29.71 "Hg2 mi
8:20 AM41 °FFog.7 mph93%29.71 "Hg2 mi
7:50 AM39 °FClear.7 mph100%29.71 "Hg3 mi
7:20 AM39 °FPassing clouds.8 mph100%29.71 "Hg3 mi
6:50 AM39 °FPassing clouds.9 mph100%29.71 "Hg2 mi
6:20 AM39 °FFog.10 mph100%29.71 "Hg1 mi
5:50 AM39 °FLight rain. Fog.8 mph100%29.71 "Hg1 mi
5:20 AM39 °FFog.9 mph100%29.71 "Hg1 mi
4:50 AM39 °FFog.10 mph100%29.71 "Hg1 mi
4:20 AM39 °FFog.8 mph100%29.71 "Hg1 mi
3:50 AM39 °FFog.6 mph100%29.71 "Hg1 mi
3:20 AM41 °FQuite cool.6 mph93%29.71 "HgN/A
Weather by CustomWeather, © 2014

See weather overviewHow to use our weather pages